Location: Newark
(7.0858°N, 171.3717°E)
Time: 17:11:43
(UTC+00:00)

Altair - Pass Details

Date: 29 November 2020
Orbit: 1501 x 1682 km, 47.2° (Epoch: 20 January)

Event Time Altitude Azimuth Distance (km) Brightness Sun altitude
Exits shadow 16:54:25 24° 333° (NNW) 2,762 8.4 -23.2°
Maximum altitude 17:00:37 68° 50° (NE) 1,655 7.7 -21.7°
Drops below altitude 10° 17:10:12 10° 131° (SE) 3,812 10.6 -19.5°
Sets 17:13:23 0° 133° (SE) 4,823 11.3 -18.8°
